Terug naar catalogus

CZ-6A DEB

ActiefPO
NORAD 60653·DEBRIS·🇨🇳 China

Gelanceerd Aug 6, 2024 vanaf Taiyuan Satellite Launch Center

Loading…

Volgende Passages (komende 24 uur)

TLE

VersSource: Space-Track

Epoch: Sep 14, 2026, 09:37 UTC

1 60653U 24140BE  26257.40108425  .00000361  00000-0  12244-3 0  9993
2 60653  88.6549 230.5589 0027387 328.2970  31.6577 14.34304179109670

Volg CZ-6A DEB in realtime met AllMySat

Download on the App Store